• In Portugal
  • List of Countries
  • For 7 days
  • Water Temperature
  • Satellite Maps
  • Weather Map
  • Weather Widgets
  • user-avatar
    Login

    Hourly Weather Konstantyna

    Today, 24 October, Wednesday

    Time Temperature Precipitation Wind Pressure Humidity
    00:00 +14°C° 0 mm 2 mps 713 mmHg 85%
    01:00 +14°C° 0.1 mm 2 mps 713 mmHg 86%
    02:00 +14°C° 0.1 mm 2 mps 713 mmHg 87%
    03:00 +14°C° 0.1 mm 2 mps 713 mmHg 88%
    04:00 +13°C° 0 mm 2 mps 713 mmHg 90%
    05:00 +13°C° 0 mm 2 mps 713 mmHg 91%
    06:00 +13°C° 0 mm 2 mps 713 mmHg 92%
    07:00 +13°C° 0 mm 3 mps 713 mmHg 85%
    08:00 +14°C° 0 mm 3 mps 713 mmHg 78%
    09:00 +17°C° 0 mm 4 mps 714 mmHg 71%
    10:00 +17°C° 0.1 mm 4 mps 714 mmHg 69%
    11:00 +17°C° 0.1 mm 4 mps 714 mmHg 67%
    12:00 +18°C° 0.1 mm 4 mps 713 mmHg 65%
    13:00 +18°C° 0 mm 4 mps 713 mmHg 65%
    14:00 +18°C° 0 mm 4 mps 713 mmHg 65%
    15:00 +18°C° 0 mm 4 mps 712 mmHg 65%
    16:00 +17°C° 0 mm 4 mps 712 mmHg 69%
    17:00 +16°C° 0 mm 3 mps 712 mmHg 73%
    18:00 +16°C° 0 mm 2 mps 712 mmHg 77%
    19:00 +15°C° 0 mm 2 mps 712 mmHg 79%
    20:00 +15°C° 0 mm 2 mps 712 mmHg 81%
    21:00 +14°C° 0 mm 1 mps 713 mmHg 83%
    22:00 +14°C° 0 mm 1 mps 713 mmHg 83%
    23:00 +14°C° 0 mm 1 mps 713 mmHg 83%

    Tomorrow, 25 October, Thursday

    Time Temperature Precipitation Wind Pressure Humidity
    00:00 +14°C° 0 mm 1 mps 712 mmHg 83%
    01:00 +13°C° 0 mm 1 mps 712 mmHg 84%
    02:00 +13°C° 0 mm 1 mps 712 mmHg 84%
    03:00 +13°C° 0 mm 1 mps 712 mmHg 84%
    04:00 +13°C° 0 mm 1 mps 712 mmHg 84%
    05:00 +13°C° 0 mm 1 mps 712 mmHg 84%
    06:00 +13°C° 0 mm 1 mps 712 mmHg 84%
    07:00 +14°C° 0 mm 1 mps 713 mmHg 78%
    08:00 +16°C° 0 mm 1 mps 713 mmHg 71%
    09:00 +19°C° 0 mm 1 mps 714 mmHg 64%
    10:00 +20°C° 0 mm 1 mps 714 mmHg 60%
    11:00 +21°C° 0 mm 1 mps 714 mmHg 56%
    12:00 +22°C° 0 mm 1 mps 714 mmHg 51%
    13:00 +22°C° 0 mm 1 mps 713 mmHg 50%
    14:00 +23°C° 0 mm 1 mps 713 mmHg 48%
    15:00 +23°C° 0 mm 1 mps 713 mmHg 46%
    16:00 +22°C° 0 mm 1 mps 713 mmHg 51%
    17:00 +21°C° 0 mm 1 mps 713 mmHg 57%
    18:00 +20°C° 0 mm 1 mps 712 mmHg 62%
    19:00 +19°C° 0 mm 1 mps 712 mmHg 63%
    20:00 +19°C° 0 mm 1 mps 713 mmHg 63%
    21:00 +19°C° 0 mm 1 mps 713 mmHg 64%
    22:00 +18°C° 0 mm 1 mps 712 mmHg 62%
    23:00 +17°C° 0 mm 2 mps 712 mmHg 61%

    Day after tomorrow, 26 October, Friday

    Time Temperature Precipitation Wind Pressure Humidity
    00:00 +17°C° 0 mm 2 mps 712 mmHg 59%
    01:00 +16°C° 0 mm 2 mps 712 mmHg 59%
    02:00 +16°C° 0 mm 2 mps 712 mmHg 59%
    03:00 +16°C° 0 mm 2 mps 711 mmHg 59%
    04:00 +15°C° 0 mm 2 mps 711 mmHg 59%
    05:00 +15°C° 0 mm 2 mps 711 mmHg 59%
    06:00 +15°C° 0 mm 2 mps 711 mmHg 60%
    07:00 +17°C° 0 mm 2 mps 711 mmHg 54%
    08:00 +19°C° 0 mm 3 mps 712 mmHg 48%
    09:00 +20°C° 0 mm 3 mps 712 mmHg 41%
    10:00 +22°C° 0 mm 3 mps 712 mmHg 37%
    11:00 +24°C° 0 mm 3 mps 712 mmHg 33%
    12:00 +25°C° 0 mm 4 mps 711 mmHg 29%
    13:00 +25°C° 0 mm 4 mps 711 mmHg 30%
    14:00 +25°C° 0 mm 4 mps 711 mmHg 30%
    15:00 +25°C° 0 mm 4 mps 710 mmHg 31%
    16:00 +22°C° 0 mm 4 mps 710 mmHg 35%
    17:00 +21°C° 0 mm 3 mps 710 mmHg 40%
    18:00 +19°C° 0 mm 2 mps 710 mmHg 45%
    19:00 +18°C° 0 mm 3 mps 710 mmHg 47%
    20:00 +18°C° 0 mm 3 mps 710 mmHg 49%
    21:00 +17°C° 0 mm 3 mps 710 mmHg 51%
    22:00 +17°C° 0 mm 3 mps 710 mmHg 53%
    23:00 +16°C° 0 mm 3 mps 709 mmHg 55%

    27 October, Saturday

    Time Temperature Precipitation Wind Pressure Humidity
    00:00 +16°C° 0 mm 3 mps 709 mmHg 57%
    01:00 +16°C° 0 mm 3 mps 708 mmHg 58%
    02:00 +14°C° 0 mm 3 mps 708 mmHg 59%
    03:00 +14°C° 0 mm 3 mps 708 mmHg 60%
    04:00 +14°C° 0 mm 3 mps 707 mmHg 61%
    05:00 +14°C° 0 mm 3 mps 707 mmHg 61%
    06:00 +13°C° 0 mm 3 mps 707 mmHg 62%
    07:00 +15°C° 0 mm 4 mps 707 mmHg 55%
    08:00 +17°C° 0 mm 5 mps 708 mmHg 47%
    09:00 +21°C° 0 mm 6 mps 708 mmHg 40%
    10:00 +21°C° 0 mm 7 mps 707 mmHg 38%
    11:00 +22°C° 0 mm 7 mps 707 mmHg 35%
    12:00 +23°C° 0 mm 8 mps 707 mmHg 33%
    13:00 +23°C° 0 mm 7 mps 706 mmHg 35%
    14:00 +22°C° 0 mm 7 mps 705 mmHg 37%
    15:00 +22°C° 0 mm 7 mps 705 mmHg 40%
    16:00 +21°C° 0 mm 6 mps 704 mmHg 44%
    17:00 +20°C° 0 mm 5 mps 704 mmHg 49%
    18:00 +19°C° 0 mm 5 mps 704 mmHg 54%
    19:00 +19°C° 0.1 mm 5 mps 704 mmHg 56%
    20:00 +19°C° 0.1 mm 5 mps 703 mmHg 58%
    21:00 +17°C° 0.1 mm 5 mps 703 mmHg 60%
    22:00 +17°C° 0 mm 5 mps 702 mmHg 61%
    23:00 +17°C° 0 mm 6 mps 701 mmHg 62%

    28 October, Sunday

    Time Temperature Precipitation Wind Pressure Humidity
    00:00 +16°C° 0 mm 6 mps 700 mmHg 63%
    01:00 +16°C° 0 mm 6 mps 700 mmHg 64%
    02:00 +16°C° 0 mm 6 mps 699 mmHg 65%
    03:00 +15°C° 0 mm 6 mps 698 mmHg 66%
    04:00 +15°C° 0.1 mm 5 mps 698 mmHg 69%
    05:00 +15°C° 0.1 mm 5 mps 698 mmHg 71%
    06:00 +14°C° 0.1 mm 5 mps 699 mmHg 74%
    07:00 +14°C° 0.9 mm 5 mps 699 mmHg 73%
    08:00 +15°C° 0.9 mm 5 mps 699 mmHg 73%
    09:00 +15°C° 0.9 mm 6 mps 700 mmHg 72%
    10:00 +15°C° 0.8 mm 5 mps 699 mmHg 69%
    11:00 +15°C° 0.8 mm 5 mps 699 mmHg 66%
    12:00 +15°C° 0.8 mm 5 mps 699 mmHg 63%
    13:00 +16°C° 0.1 mm 5 mps 699 mmHg 58%
    14:00 +16°C° 0.1 mm 6 mps 699 mmHg 54%
    15:00 +16°C° 0.1 mm 7 mps 698 mmHg 49%
    16:00 +15°C° 0.3 mm 6 mps 699 mmHg 53%
    17:00 +14°C° 0.3 mm 5 mps 699 mmHg 57%
    18:00 +12°C° 0.3 mm 5 mps 700 mmHg 61%
    19:00 +12°C° 0.2 mm 5 mps 700 mmHg 63%
    20:00 +10°C° 0.2 mm 6 mps 700 mmHg 64%
    21:00 +9°C° 0.2 mm 6 mps 701 mmHg 66%
    22:00 +9°C° 0.1 mm 5 mps 701 mmHg 67%
    23:00 +8°C° 0.1 mm 5 mps 701 mmHg 67%

    29 October, Monday

    Time Temperature Precipitation Wind Pressure Humidity
    00:00 +8°C° 0.1 mm 4 mps 701 mmHg 68%
    01:00 +7°C° 0 mm 4 mps 701 mmHg 66%
    02:00 +7°C° 0 mm 4 mps 701 mmHg 65%
    03:00 +6°C° 0 mm 4 mps 701 mmHg 64%
    04:00 +6°C° 0 mm 4 mps 701 mmHg 62%
    05:00 +6°C° 0 mm 4 mps 701 mmHg 61%
    06:00 +6°C° 0 mm 4 mps 701 mmHg 60%
    07:00 +7°C° 0 mm 5 mps 701 mmHg 54%
    08:00 +8°C° 0 mm 7 mps 701 mmHg 48%
    09:00 +9°C° 0 mm 8 mps 702 mmHg 42%
    10:00 +10°C° 0 mm 9 mps 702 mmHg 40%
    11:00 +10°C° 0 mm 9 mps 702 mmHg 37%
    12:00 +11°C° 0 mm 10 mps 702 mmHg 35%
    13:00 +11°C° 0 mm 10 mps 701 mmHg 36%
    14:00 +11°C° 0 mm 9 mps 701 mmHg 38%
    15:00 +10°C° 0 mm 9 mps 701 mmHg 39%
    16:00 +10°C° 0 mm 8 mps 702 mmHg 42%
    17:00 +9°C° 0 mm 7 mps 702 mmHg 45%
    18:00 +8°C° 0 mm 6 mps 702 mmHg 48%
    19:00 +6°C° 0 mm 7 mps 703 mmHg 50%
    20:00 +6°C° 0 mm 7 mps 703 mmHg 52%
    21:00 +6°C° 0 mm 7 mps 703 mmHg 54%
    22:00 +5°C° 0.1 mm 7 mps 704 mmHg 57%
    23:00 +5°C° 0.1 mm 7 mps 704 mmHg 60%

    30 October, Tuesday

    Time Temperature Precipitation Wind Pressure Humidity
    00:00 +5°C° 0.1 mm 6 mps 704 mmHg 63%
    01:00 +5°C° 0.1 mm 6 mps 704 mmHg 65%
    02:00 +6°C° 0.1 mm 5 mps 704 mmHg 67%
    03:00 +6°C° 0.1 mm 4 mps 704 mmHg 69%
    04:00 +6°C° 0 mm 4 mps 704 mmHg 70%
    05:00 +6°C° 0 mm 4 mps 704 mmHg 71%
    06:00 +5°C° 0 mm 5 mps 705 mmHg 72%
    07:00 +7°C° 0 mm 5 mps 705 mmHg 66%
    08:00 +9°C° 0 mm 6 mps 706 mmHg 60%
    09:00 +10°C° 0 mm 6 mps 706 mmHg 53%
    10:00 +11°C° 0 mm 6 mps 707 mmHg 50%
    11:00 +13°C° 0 mm 6 mps 707 mmHg 47%
    12:00 +14°C° 0 mm 6 mps 707 mmHg 44%
    13:00 +14°C° 0 mm 5 mps 707 mmHg 43%
    14:00 +14°C° 0 mm 4 mps 707 mmHg 43%
    15:00 +16°C° 0 mm 3 mps 707 mmHg 43%
    16:00 +13°C° 0 mm 3 mps 707 mmHg 47%
    17:00 +13°C° 0 mm 2 mps 707 mmHg 51%
    18:00 +12°C° 0 mm 1 mps 707 mmHg 56%
    19:00 +12°C° 0 mm 1 mps 707 mmHg 56%
    20:00 +12°C° 0 mm 2 mps 707 mmHg 56%
    21:00 +10°C° 0 mm 2 mps 708 mmHg 56%
    22:00 +10°C° 0 mm 2 mps 707 mmHg 56%
    23:00 +10°C° 0 mm 2 mps 707 mmHg 56%
    Show more